COSMOS 2251 DEB, 33762

Orbit data source: Space-Track

COSMOS 2251 DEB, 33762 is space debris in LEO originally from a launch on Wed, 16 Jun 1993 UTC launched from the Plesetsk Missile And Space Complex (PKMTR). The debris from Iridium 33, an American commercial communications satellite, has been tracked extensively since its accidental collision with the defunct Russian satellite Cosmos 2251 in 2009. This event, occurring at high speed in low Earth orbit (LEO), generated thousands of pieces of space debris, significantly increasing the risk of further collisions. The Iridium 33 debris cloud has impacted space traffic management and orbital debris mitigation strategies, making it a subject of ongoing study in space situational awareness.

Loading next visibility...
Identifier
33762, 1993-036K
Orbit
LEO
Country
Flag of CISCIS
Related business
Manufacturer
Unknown
Mission
Spacecraft
Bus & Motor
Unknown
Mass
Unknown
Launch date (UTC)
1993-06-16 (33 years ago)
Launch vehicle
Unknown
Launch site
Plesetsk Missile And Space Complex (PKMTR)
Object type
Payload
Rocket body
Debris
Shape & HBR
Unknown shape, 0.1 m
Radar Cross Section
Small (<0.1 m²)

Expand to show TLE details & history
Last TLE update: 1 day ago

TLE from 1 day ago
0 COSMOS 2251 DEB
1 33762U 93036K   26106.42682101  .00000053  00000-0  28573-4 0  9998
2 33762  74.0399  82.0647 0014263 120.0492  42.5335 14.33706444898346
Epoch: 2026-04-16T10:14Z
TLE epoch observation values (Epoch: 2026-04-16T10:14:37.335Z)
Latitude
16.61037°
Longitude
-101.03334°
Altitude
773.82 km
Speed
7.473 km/s
True Right ascension
17h 08m 47s
True Declination
16° 30' 60"
Sunlit
Object was in full shadow at epoch
Visualization orbit readout
Latitude
Unknown
Longitude
Unknown
Altitude
Unknown
Speed
Unknown
Apparent Right ascension
Unknown
Apparent Declination
Unknown
Sunlit
N/A
Visualization observer readout
Local Sidereal Time
17:05:01
Azimuth
Unknown
Elevation
Unknown
Doppler factor
Unknown
Orbital elements
Apogee altitude
787.2 km
Perigee altitude
766.789 km
Semi-major axis
7,155.132 km
Eccentricity
0.00143
Inclination
74.0399°
RAAN
82.0647°
Arg. of periapsis
120.0492°
True anomaly
42.64414°
Mean anomaly
42.5335°
Eccentric anomaly
42.5888°
Mean motion
3.58605 °/min
Orbital period
100.39 mins
BSTAR
0.000028573

Documentation

Showing up to 5 results
|